Showing default

TJS-16, 63397

Orbit data source: Space-Track

TJS-16, 63397 is a payload satellite owned by PLA SSF (CN) in GEO that was launched on Sat, 29 Mar 2025 UTC via a CHANG ZHENG 7A launch vehicle from the Wenchang Satellite Launch Center (WSC). Payload-class satellites include a variety of spacecraft equipped with specific instruments for various scientific and technological missions. These include communications satellites like Starlink; space stations such as the ISS; scientific satellites like the Hubble; Earth observation satellites from companies like Planet Labs, Umbra, and HawkEye 360; GPS; miniature CubeSats for education and research; and military/defense satellites.

Not visible in the next 10 days
Identifier
63397, 2025-064A
Orbit
GEO
Country
Flag of CNCN / PRC
Related business
Manufacturer
SISE
Mission
Operational Defense Technology
Bus & Motor
FY-4?, LAE
Mass
~5,000 kg wet, ~2,500 kg dry
Launch date (UTC)
2025-03-29 (1 year ago)
Launch vehicle
CHANG ZHENG 7A
Launch site
Wenchang Satellite Launch Center (WSC)
Object type
Payload
Rocket body
Debris
Shape & HBR
Box + 2 Pan, 22.5 m
Radar Cross Section
34.063 m², Large (>1 m²)

Expand to show TLE details & history
Last TLE update: 15 hours ago

TLE from 15 hours ago
0 TJS-16
1 63397U 25064A   26145.80054919 -.00000105  00000-0  00000+0 0  9995
2 63397   1.0426  81.5628 0004068 288.0420 322.5392  1.00272505  4164
Epoch: 2026-05-25T19:12Z
TLE epoch observation values (Epoch: 2026-05-25T19:12:47.450Z)
Latitude
-0.97321°
Longitude
160.53483°
Altitude
35,772.457 km
Speed
3.076 km/s
True Right ascension
22h 08m 27s
True Declination
0° 58' 20"
Sunlit
Object was in daylight at epoch
Visualization orbit readout
Latitude
Unknown
Longitude
Unknown
Altitude
Unknown
Speed
Unknown
Apparent Right ascension
Unknown
Apparent Declination
Unknown
Sunlit
N/A
Visualization observer readout
Local Sidereal Time
19:07:51
Azimuth
Unknown
Elevation
Unknown
Doppler factor
Unknown
Orbital elements
Apogee altitude
35,804.616 km
Perigee altitude
35,770.31 km
Semi-major axis
42,165.6 km
Eccentricity
0.00041
Inclination
1.0426°
RAAN
81.5628°
Arg. of periapsis
288.042°
True anomaly
322.51084°
Mean anomaly
322.5392°
Eccentric anomaly
322.52502°
Mean motion
0.25067 °/min
Orbital period
1,436.14 mins
BSTAR
0
Loading maneuver chart data...
Computing Atmospheric mass density...
Loading historical data...
Loading historical data...
Loading historical data...
Loading historical data...
Loading historical data...
Loading historical data...
Loading historical data...
Other satellites on launch #64 in the year 2025 (2025-03-29 UTC)

Documentation

Showing up to 5 results
|